Year,Month,Day,Hour,Minute,Value (Times are PST for temperature in C)
2014,07,14,00,00,20.80
2014,07,14,00,01,20.70
2014,07,14,00,02,20.70
2014,07,14,00,03,20.70
2014,07,14,00,04,20.60
2014,07,14,00,05,20.60
2014,07,14,00,06,20.60
2014,07,14,00,07,20.60
2014,07,14,00,08,20.60
2014,07,14,00,09,20.50
2014,07,14,00,10,20.50
2014,07,14,00,11,20.50
2014,07,14,00,12,20.40
2014,07,14,00,13,20.40
2014,07,14,00,14,20.40
2014,07,14,00,15,20.40
2014,07,14,00,16,20.40
2014,07,14,00,17,20.40
2014,07,14,00,18,20.40
2014,07,14,00,19,20.40
2014,07,14,00,20,20.30
2014,07,14,00,21,20.30
2014,07,14,00,22,20.30
2014,07,14,00,23,20.30
2014,07,14,00,24,20.30
2014,07,14,00,25,20.30
2014,07,14,00,26,20.30
2014,07,14,00,27,20.30
2014,07,14,00,28,20.30
2014,07,14,00,29,20.30
2014,07,14,00,30,20.30
2014,07,14,00,31,20.20
2014,07,14,00,32,20.20
2014,07,14,00,33,20.20
2014,07,14,00,34,20.20
2014,07,14,00,35,20.20
2014,07,14,00,36,20.20
2014,07,14,00,37,20.20
2014,07,14,00,38,20.20
2014,07,14,00,39,20.20
2014,07,14,00,40,20.30
2014,07,14,00,41,20.30
2014,07,14,00,42,20.30
2014,07,14,00,43,20.30
2014,07,14,00,44,20.30
2014,07,14,00,45,20.30
2014,07,14,00,46,20.30
2014,07,14,00,47,20.30
2014,07,14,00,48,20.30
2014,07,14,00,49,20.30
2014,07,14,00,50,20.30
2014,07,14,00,51,20.30
2014,07,14,00,52,20.30
2014,07,14,00,53,20.30
2014,07,14,00,54,20.30
2014,07,14,00,55,20.30
2014,07,14,00,56,20.30
2014,07,14,00,57,20.30
2014,07,14,00,58,20.30
2014,07,14,00,59,20.30
2014,07,14,01,00,20.30
2014,07,14,01,01,20.30
2014,07,14,01,02,20.30
2014,07,14,01,03,20.30
2014,07,14,01,04,20.40
2014,07,14,01,05,20.40
2014,07,14,01,06,20.40
2014,07,14,01,07,20.40
2014,07,14,01,08,20.40
2014,07,14,01,09,20.40
2014,07,14,01,10,20.40
2014,07,14,01,11,20.40
2014,07,14,01,12,20.40
2014,07,14,01,13,20.40
2014,07,14,01,14,20.40
2014,07,14,01,15,20.30
2014,07,14,01,16,20.30
2014,07,14,01,17,20.30
2014,07,14,01,18,20.30
2014,07,14,01,19,20.30
2014,07,14,01,20,20.30
2014,07,14,01,21,20.30
2014,07,14,01,22,20.30
2014,07,14,01,23,20.30
2014,07,14,01,24,20.30
2014,07,14,01,25,20.30
2014,07,14,01,26,20.30
2014,07,14,01,27,20.30
2014,07,14,01,28,20.30
2014,07,14,01,29,20.30
2014,07,14,01,30,20.30
2014,07,14,01,31,20.30
2014,07,14,01,32,20.30
2014,07,14,01,33,20.30
2014,07,14,01,34,20.30
2014,07,14,01,35,20.30
2014,07,14,01,36,20.30
2014,07,14,01,37,20.30
2014,07,14,01,38,20.30
2014,07,14,01,39,20.30
2014,07,14,01,40,20.30
2014,07,14,01,41,20.30
2014,07,14,01,42,20.30
2014,07,14,01,43,20.30
2014,07,14,01,44,20.30
2014,07,14,01,45,20.30
2014,07,14,01,46,20.30
2014,07,14,01,47,20.30
2014,07,14,01,48,20.30
2014,07,14,01,49,20.30
2014,07,14,01,50,20.30
2014,07,14,01,51,20.30
2014,07,14,01,52,20.30
2014,07,14,01,53,20.30
2014,07,14,01,54,20.30
2014,07,14,01,55,20.30
2014,07,14,01,56,20.30
2014,07,14,01,57,20.30
2014,07,14,01,58,20.30
2014,07,14,01,59,20.30
2014,07,14,02,00,20.30
2014,07,14,02,01,20.30
2014,07,14,02,02,20.30
2014,07,14,02,03,20.30
2014,07,14,02,04,20.30
2014,07,14,02,05,20.30
2014,07,14,02,06,20.30
2014,07,14,02,07,20.30
2014,07,14,02,08,20.30
2014,07,14,02,09,20.30
2014,07,14,02,10,20.30
2014,07,14,02,11,20.20
2014,07,14,02,12,20.20
2014,07,14,02,13,20.20
2014,07,14,02,14,20.20
2014,07,14,02,15,20.20
2014,07,14,02,16,20.20
2014,07,14,02,17,20.20
2014,07,14,02,18,20.20
2014,07,14,02,19,20.20
2014,07,14,02,20,20.20
2014,07,14,02,21,20.10
2014,07,14,02,22,20.10
2014,07,14,02,23,20.10
2014,07,14,02,24,20.10
2014,07,14,02,25,20.10
2014,07,14,02,26,20.10
2014,07,14,02,27,20.10
2014,07,14,02,28,20.10
2014,07,14,02,29,20.10
2014,07,14,02,30,20.10
2014,07,14,02,31,20.10
2014,07,14,02,32,20.10
2014,07,14,02,33,20.10
2014,07,14,02,34,20.10
2014,07,14,02,35,20.10
2014,07,14,02,36,20.10
2014,07,14,02,37,20.10
2014,07,14,02,38,20.00
2014,07,14,02,39,20.00
2014,07,14,02,40,20.00
2014,07,14,02,41,20.00
2014,07,14,02,42,19.90
2014,07,14,02,43,19.90
2014,07,14,02,44,19.90
2014,07,14,02,45,19.90
2014,07,14,02,46,19.90
2014,07,14,02,47,19.90
2014,07,14,02,48,19.90
2014,07,14,02,49,19.90
2014,07,14,02,50,19.80
2014,07,14,02,51,19.80
2014,07,14,02,52,19.80
2014,07,14,02,53,19.80
2014,07,14,02,54,19.80
2014,07,14,02,55,19.80
2014,07,14,02,56,19.80
2014,07,14,02,57,19.80
2014,07,14,02,58,19.80
2014,07,14,02,59,19.70
2014,07,14,03,00,19.70
2014,07,14,03,01,19.70
2014,07,14,03,02,19.70
2014,07,14,03,06,19.60
2014,07,14,03,07,19.60
2014,07,14,03,08,19.60
2014,07,14,03,09,19.60
2014,07,14,03,10,19.50
2014,07,14,03,11,19.50
2014,07,14,03,12,19.50
2014,07,14,03,13,19.50
2014,07,14,03,14,19.40
2014,07,14,03,15,19.40
2014,07,14,03,16,19.40
2014,07,14,03,17,19.40
2014,07,14,03,18,19.40
2014,07,14,03,19,19.30
2014,07,14,03,20,19.30
2014,07,14,03,21,19.30
2014,07,14,03,22,19.30
2014,07,14,03,23,19.30
2014,07,14,03,24,19.20
2014,07,14,03,25,19.20
2014,07,14,03,26,19.20
2014,07,14,03,27,19.10
2014,07,14,03,28,19.10
2014,07,14,03,29,19.10
2014,07,14,03,30,19.10
2014,07,14,03,31,19.00
2014,07,14,03,32,19.00
2014,07,14,03,33,18.90
2014,07,14,03,34,18.90
2014,07,14,03,35,18.90
2014,07,14,03,36,18.90
2014,07,14,03,37,18.90
2014,07,14,03,38,18.80
2014,07,14,03,39,18.80
2014,07,14,03,40,18.80
2014,07,14,03,41,18.80
2014,07,14,03,42,18.80
2014,07,14,03,43,18.70
2014,07,14,03,44,18.70
2014,07,14,03,45,18.70
2014,07,14,03,46,18.70
2014,07,14,03,47,18.60
2014,07,14,03,48,18.60
2014,07,14,03,49,18.60
2014,07,14,03,50,18.60
2014,07,14,03,51,18.50
2014,07,14,03,52,18.50
2014,07,14,03,53,18.50
2014,07,14,03,54,18.40
2014,07,14,03,55,18.40
2014,07,14,03,56,18.40
2014,07,14,03,57,18.40
2014,07,14,03,58,18.30
2014,07,14,03,59,18.30
2014,07,14,04,00,18.30
2014,07,14,04,01,18.30
2014,07,14,04,02,18.30
2014,07,14,04,03,18.20
2014,07,14,04,04,18.20
2014,07,14,04,05,18.20
2014,07,14,04,06,18.20
2014,07,14,04,07,18.20
2014,07,14,04,08,18.10
2014,07,14,04,09,18.10
2014,07,14,04,10,18.10
2014,07,14,04,11,18.10
2014,07,14,04,12,18.00
2014,07,14,04,13,18.00
2014,07,14,04,14,18.00
2014,07,14,04,15,17.90
2014,07,14,04,16,17.90
2014,07,14,04,17,17.90
2014,07,14,04,18,17.90
2014,07,14,04,19,17.80
2014,07,14,04,20,17.80
2014,07,14,04,21,17.80
2014,07,14,04,22,17.80
2014,07,14,04,23,17.80
2014,07,14,04,24,17.70
2014,07,14,04,25,17.70
2014,07,14,04,26,17.70
2014,07,14,04,27,17.70
2014,07,14,04,28,17.60
2014,07,14,04,29,17.60
2014,07,14,04,30,17.60
2014,07,14,04,31,17.60
2014,07,14,04,32,17.60
2014,07,14,04,33,17.60
2014,07,14,04,34,17.60
2014,07,14,04,35,17.50
2014,07,14,04,36,17.50
2014,07,14,04,37,17.50
2014,07,14,04,38,17.50
2014,07,14,04,39,17.50
2014,07,14,04,40,17.40
2014,07,14,04,41,17.50
2014,07,14,04,42,17.40
2014,07,14,04,43,17.40
2014,07,14,04,44,17.40
2014,07,14,04,45,17.40
2014,07,14,04,46,17.40
2014,07,14,04,47,17.40
2014,07,14,04,48,17.50
2014,07,14,04,49,17.50
2014,07,14,04,50,17.60
2014,07,14,04,51,17.60
2014,07,14,04,52,17.60
2014,07,14,04,53,17.60
2014,07,14,04,54,17.60
2014,07,14,04,55,17.60
2014,07,14,04,56,17.60
2014,07,14,04,57,17.60
2014,07,14,04,58,17.70
2014,07,14,04,59,17.70
2014,07,14,05,00,17.70
2014,07,14,05,01,17.70
2014,07,14,05,02,17.70
2014,07,14,05,03,17.70
2014,07,14,05,04,17.60
2014,07,14,05,05,17.60
2014,07,14,05,06,17.60
2014,07,14,05,07,17.60
2014,07,14,05,08,17.50
2014,07,14,05,09,17.50
2014,07,14,05,10,17.40
2014,07,14,05,11,17.40
2014,07,14,05,12,17.40
2014,07,14,05,13,17.30
2014,07,14,05,14,17.30
2014,07,14,05,15,17.30
2014,07,14,05,16,17.20
2014,07,14,05,17,17.20
2014,07,14,05,18,17.10
2014,07,14,05,19,17.10
2014,07,14,05,20,17.00
2014,07,14,05,21,17.00
2014,07,14,05,22,16.90
2014,07,14,05,23,16.80
2014,07,14,05,24,16.80
2014,07,14,05,25,16.70
2014,07,14,05,26,16.70
2014,07,14,05,27,16.70
2014,07,14,05,28,16.60
2014,07,14,05,29,16.60
2014,07,14,05,30,16.60
2014,07,14,05,31,16.50
2014,07,14,05,32,16.50
2014,07,14,05,33,16.40
2014,07,14,05,34,16.40
2014,07,14,05,35,16.40
2014,07,14,05,36,16.30
2014,07,14,05,37,16.30
2014,07,14,05,38,16.30
2014,07,14,05,39,16.30
2014,07,14,05,40,16.30
2014,07,14,05,41,16.20
2014,07,14,05,42,16.20
2014,07,14,05,43,16.20
2014,07,14,05,44,16.20
2014,07,14,05,45,16.20
2014,07,14,05,46,16.10
2014,07,14,05,47,16.10
2014,07,14,05,48,16.00
2014,07,14,05,49,15.90
2014,07,14,05,50,15.90
2014,07,14,05,51,15.80
2014,07,14,05,52,15.80
2014,07,14,05,53,15.70
2014,07,14,05,54,15.70
2014,07,14,05,55,15.60
2014,07,14,05,56,15.60
2014,07,14,05,57,15.50
2014,07,14,05,58,15.50
2014,07,14,05,59,15.40
2014,07,14,06,00,15.40
2014,07,14,06,01,15.30
2014,07,14,06,02,15.30
2014,07,14,06,03,15.20
2014,07,14,06,04,15.20
2014,07,14,06,05,15.10
2014,07,14,06,06,15.00
2014,07,14,06,07,15.00
2014,07,14,06,08,15.00
2014,07,14,06,09,15.00
2014,07,14,06,10,15.00
2014,07,14,06,11,15.00
2014,07,14,06,12,15.00
2014,07,14,06,13,15.00
2014,07,14,06,14,15.00
2014,07,14,06,15,15.00
2014,07,14,06,16,15.00
2014,07,14,06,17,15.00
2014,07,14,06,18,15.00
2014,07,14,06,19,15.00
2014,07,14,06,20,15.00
2014,07,14,06,21,15.00
2014,07,14,06,22,15.00
2014,07,14,06,23,15.00
2014,07,14,06,24,15.00
2014,07,14,06,25,15.00
2014,07,14,06,26,15.00
2014,07,14,06,27,15.00
2014,07,14,06,28,15.00
2014,07,14,06,29,15.00
2014,07,14,06,30,15.00
2014,07,14,06,31,15.00
2014,07,14,06,32,15.00
2014,07,14,06,33,15.00
2014,07,14,06,34,15.00
2014,07,14,06,35,15.00
2014,07,14,06,36,15.00
2014,07,14,06,37,15.00
2014,07,14,06,38,15.10
2014,07,14,06,39,15.10
2014,07,14,06,40,15.10
2014,07,14,06,41,15.20
2014,07,14,06,42,15.20
2014,07,14,06,43,15.30
2014,07,14,06,44,15.30
2014,07,14,06,45,15.30
2014,07,14,06,46,15.30
2014,07,14,06,47,15.30
2014,07,14,06,48,15.40
2014,07,14,06,49,15.50
2014,07,14,06,50,15.50
2014,07,14,06,51,15.60
2014,07,14,06,52,15.70
2014,07,14,06,53,15.80
2014,07,14,06,54,15.80
2014,07,14,06,55,15.90
2014,07,14,06,56,16.00
2014,07,14,06,57,16.00
2014,07,14,06,58,16.10
2014,07,14,06,59,16.10
2014,07,14,07,00,16.20
2014,07,14,07,01,16.20
2014,07,14,07,02,16.20
2014,07,14,07,03,16.20
2014,07,14,07,04,16.30
2014,07,14,07,05,16.30
2014,07,14,07,06,16.30
2014,07,14,07,07,16.30
2014,07,14,07,08,16.30
2014,07,14,07,09,16.30
2014,07,14,07,10,16.40
2014,07,14,07,11,16.40
2014,07,14,07,12,16.40
2014,07,14,07,13,16.40
2014,07,14,07,14,16.40
2014,07,14,07,15,16.40
2014,07,14,07,16,16.40
2014,07,14,07,17,16.40
2014,07,14,07,18,16.40
2014,07,14,07,19,16.50
2014,07,14,07,20,16.50
2014,07,14,07,21,16.50
2014,07,14,07,22,16.50
2014,07,14,07,23,16.60
2014,07,14,07,24,16.60
2014,07,14,07,25,16.60
2014,07,14,07,26,16.60
2014,07,14,07,27,16.60
2014,07,14,07,28,16.60
2014,07,14,07,29,16.70
2014,07,14,07,30,16.70
2014,07,14,07,31,16.70
2014,07,14,07,32,16.70
2014,07,14,07,33,16.70
2014,07,14,07,34,16.70
2014,07,14,07,35,16.70
2014,07,14,07,36,16.80
2014,07,14,07,37,16.80
2014,07,14,07,38,16.80
2014,07,14,07,39,16.80
2014,07,14,07,40,16.80
2014,07,14,07,41,16.80
2014,07,14,07,42,16.80
2014,07,14,07,43,16.90
2014,07,14,07,44,16.90
2014,07,14,07,45,16.90
2014,07,14,07,46,16.90
2014,07,14,07,47,17.00
2014,07,14,07,48,17.00
2014,07,14,07,49,17.10
2014,07,14,07,50,17.10
2014,07,14,07,51,17.20
2014,07,14,07,52,17.20
2014,07,14,07,53,17.30
2014,07,14,07,54,17.30
2014,07,14,07,55,17.40
2014,07,14,07,56,17.50
2014,07,14,07,57,17.60
2014,07,14,07,58,17.70
2014,07,14,07,59,17.80
2014,07,14,08,00,17.80
2014,07,14,08,01,17.90
2014,07,14,08,02,17.90
2014,07,14,08,03,18.00
2014,07,14,08,04,18.00
2014,07,14,08,05,18.10
2014,07,14,08,06,18.20
2014,07,14,08,07,18.20
2014,07,14,08,08,18.30
2014,07,14,08,09,18.30
2014,07,14,08,10,18.40
2014,07,14,08,11,18.40
2014,07,14,08,12,18.50
2014,07,14,08,13,18.60
2014,07,14,08,14,18.70
2014,07,14,08,15,18.80
2014,07,14,08,16,18.90
2014,07,14,08,17,19.00
2014,07,14,08,18,19.10
2014,07,14,08,19,19.20
2014,07,14,08,20,19.40
2014,07,14,08,21,19.50
2014,07,14,08,22,19.70
2014,07,14,08,23,19.80
2014,07,14,08,24,19.90
2014,07,14,08,25,20.00
2014,07,14,08,26,20.10
2014,07,14,08,27,20.20
2014,07,14,08,28,20.30
2014,07,14,08,29,20.40
2014,07,14,08,30,20.60
2014,07,14,08,31,20.70
2014,07,14,08,32,20.80
2014,07,14,08,33,21.00
2014,07,14,08,34,21.10
2014,07,14,08,35,21.20
2014,07,14,08,36,21.30
2014,07,14,08,37,21.50
2014,07,14,08,38,21.60
2014,07,14,08,39,21.70
2014,07,14,08,40,21.90
2014,07,14,08,41,22.00
2014,07,14,08,42,22.20
2014,07,14,08,43,22.30
2014,07,14,08,44,22.40
2014,07,14,08,45,22.50
2014,07,14,08,46,22.50
2014,07,14,08,47,22.60
2014,07,14,08,48,22.60
2014,07,14,08,49,22.60
2014,07,14,08,50,22.70
2014,07,14,08,51,22.70
2014,07,14,08,52,22.70
2014,07,14,08,53,22.70
2014,07,14,08,54,22.70
2014,07,14,08,55,22.80
2014,07,14,08,56,22.80
2014,07,14,08,57,22.80
2014,07,14,08,58,22.90
2014,07,14,08,59,22.90
2014,07,14,09,00,23.00
2014,07,14,09,01,23.10
2014,07,14,09,02,23.20
2014,07,14,09,03,23.30
2014,07,14,09,04,23.40
2014,07,14,09,05,23.40
2014,07,14,09,06,23.50
2014,07,14,09,07,23.60
2014,07,14,09,08,23.60
2014,07,14,09,09,23.70
2014,07,14,09,10,23.80
2014,07,14,09,11,23.80
2014,07,14,09,12,23.90
2014,07,14,09,13,23.90
2014,07,14,09,14,24.00
2014,07,14,09,15,24.00
2014,07,14,09,16,24.00
2014,07,14,09,17,24.00
2014,07,14,09,18,24.00
2014,07,14,09,19,24.00
2014,07,14,09,20,24.10
2014,07,14,09,21,24.10
2014,07,14,09,22,24.10
2014,07,14,09,23,24.10
2014,07,14,09,24,24.10
2014,07,14,09,25,24.10
2014,07,14,09,26,24.20
2014,07,14,09,27,24.30
2014,07,14,09,28,24.30
2014,07,14,09,29,24.40
2014,07,14,09,30,24.40
2014,07,14,09,31,24.50
2014,07,14,09,32,24.60
2014,07,14,09,33,24.60
2014,07,14,09,34,24.70
2014,07,14,09,35,24.80
2014,07,14,09,36,24.80
2014,07,14,09,37,24.90
2014,07,14,09,38,24.90
2014,07,14,09,39,24.90
2014,07,14,09,40,25.00
2014,07,14,09,41,25.10
2014,07,14,09,42,25.10
2014,07,14,09,43,25.20
2014,07,14,09,44,25.20
2014,07,14,09,45,25.30
2014,07,14,09,46,25.30
2014,07,14,09,47,25.40
2014,07,14,09,48,25.40
2014,07,14,09,49,25.50
2014,07,14,09,50,25.60
2014,07,14,09,51,25.60
2014,07,14,09,52,25.70
2014,07,14,09,53,25.70
2014,07,14,09,54,25.80
2014,07,14,09,55,25.80
2014,07,14,09,56,25.90
2014,07,14,09,57,25.90
2014,07,14,09,58,26.00
2014,07,14,09,59,26.10
2014,07,14,10,00,26.10
2014,07,14,10,01,26.10
2014,07,14,10,02,26.10
2014,07,14,10,03,26.10
2014,07,14,10,04,26.10
2014,07,14,10,05,26.00
2014,07,14,10,06,25.90
2014,07,14,10,07,25.90
2014,07,14,10,08,25.90
2014,07,14,10,09,25.90
2014,07,14,10,10,25.80
2014,07,14,10,11,25.80
2014,07,14,10,12,25.80
2014,07,14,10,13,25.80
2014,07,14,10,14,25.70
2014,07,14,10,15,25.70
2014,07,14,10,16,25.80
2014,07,14,10,17,25.80
2014,07,14,10,18,25.90
2014,07,14,10,19,25.90
2014,07,14,10,20,25.90
2014,07,14,10,21,25.90
2014,07,14,10,22,26.00
2014,07,14,10,23,26.10
2014,07,14,10,24,26.20
2014,07,14,10,25,26.30
2014,07,14,10,26,26.40
2014,07,14,10,27,26.50
2014,07,14,10,28,26.60
2014,07,14,10,29,26.60
2014,07,14,10,30,26.60
2014,07,14,10,31,26.60
2014,07,14,10,32,26.60
2014,07,14,10,33,26.60
2014,07,14,10,34,26.60
2014,07,14,10,35,26.60
2014,07,14,10,36,26.60
2014,07,14,10,37,26.60
2014,07,14,10,38,26.50
2014,07,14,10,39,26.50
2014,07,14,10,40,26.40
2014,07,14,10,41,26.40
2014,07,14,10,42,26.40
2014,07,14,10,43,26.30
2014,07,14,10,44,26.30
2014,07,14,10,45,26.30
2014,07,14,10,46,26.30
2014,07,14,10,47,26.30
2014,07,14,10,48,26.30
2014,07,14,10,49,26.30
2014,07,14,10,50,26.30
2014,07,14,10,51,26.40
2014,07,14,10,52,26.40
2014,07,14,10,53,26.50
2014,07,14,10,54,26.50
2014,07,14,10,55,26.50
2014,07,14,10,56,26.40
2014,07,14,10,57,26.30
2014,07,14,10,58,26.20
2014,07,14,10,59,26.10
2014,07,14,11,00,26.00
2014,07,14,11,01,26.00
2014,07,14,11,02,25.90
2014,07,14,11,03,25.90
2014,07,14,11,04,25.90
2014,07,14,11,05,25.90
2014,07,14,11,06,25.90
2014,07,14,11,07,25.90
2014,07,14,11,08,25.90
2014,07,14,11,09,25.90
2014,07,14,11,10,25.80
2014,07,14,11,11,25.80
2014,07,14,11,12,25.80
2014,07,14,11,13,25.70
2014,07,14,11,14,25.60
2014,07,14,11,15,25.50
2014,07,14,11,16,25.40
2014,07,14,11,17,25.40
2014,07,14,11,18,25.30
2014,07,14,11,19,25.20
2014,07,14,11,20,25.10
2014,07,14,11,21,25.10
2014,07,14,11,22,25.10
2014,07,14,11,23,25.10
2014,07,14,11,24,25.10
2014,07,14,11,25,25.10
2014,07,14,11,26,25.20
2014,07,14,11,27,25.20
2014,07,14,11,28,25.30
2014,07,14,11,29,25.30
2014,07,14,11,30,25.30
2014,07,14,11,31,25.40
2014,07,14,11,32,25.50
2014,07,14,11,33,25.50
2014,07,14,11,34,25.60
2014,07,14,11,35,25.70
2014,07,14,11,36,25.80
2014,07,14,11,37,25.90
2014,07,14,11,38,25.90
2014,07,14,11,39,26.00
2014,07,14,11,40,26.10
2014,07,14,11,41,26.10
2014,07,14,11,42,26.20
2014,07,14,11,43,26.30
2014,07,14,11,44,26.40
2014,07,14,11,45,26.40
2014,07,14,11,46,26.40
2014,07,14,11,47,26.50
2014,07,14,11,48,26.50
2014,07,14,11,49,26.60
2014,07,14,11,50,26.70
2014,07,14,11,51,26.70
2014,07,14,11,52,26.70
2014,07,14,11,53,26.80
2014,07,14,11,54,26.90
2014,07,14,11,55,26.90
2014,07,14,11,56,27.00
2014,07,14,11,57,27.10
2014,07,14,11,58,27.10
2014,07,14,11,59,27.10
2014,07,14,12,00,27.10
2014,07,14,12,01,27.00
2014,07,14,12,02,26.90
2014,07,14,12,03,26.90
2014,07,14,12,04,27.00
2014,07,14,12,05,27.10
2014,07,14,12,06,27.10
2014,07,14,12,07,27.20
2014,07,14,12,08,27.20
2014,07,14,12,09,27.30
2014,07,14,12,10,27.40
2014,07,14,12,11,27.40
2014,07,14,12,12,27.40
2014,07,14,12,13,27.30
2014,07,14,12,14,27.30
2014,07,14,12,15,27.30
2014,07,14,12,16,27.30
2014,07,14,12,17,27.30
2014,07,14,12,18,27.30
2014,07,14,12,19,27.30
2014,07,14,12,20,27.30
2014,07,14,12,21,27.30
2014,07,14,12,22,27.30
2014,07,14,12,23,27.30
2014,07,14,12,24,27.30
2014,07,14,12,25,27.40
2014,07,14,12,26,27.40
2014,07,14,12,27,27.50
2014,07,14,12,28,27.60
2014,07,14,12,29,27.60
2014,07,14,12,30,27.70
2014,07,14,12,31,27.70
2014,07,14,12,32,27.70
2014,07,14,12,33,27.70
2014,07,14,12,34,27.60
2014,07,14,12,35,27.60
2014,07,14,12,36,27.70
2014,07,14,12,37,27.70
2014,07,14,12,38,27.60
2014,07,14,12,39,27.50
2014,07,14,12,40,27.50
2014,07,14,12,41,27.50
2014,07,14,12,42,27.40
2014,07,14,12,43,27.20
2014,07,14,12,44,27.10
2014,07,14,12,45,26.90
2014,07,14,12,46,26.60
2014,07,14,12,47,26.50
2014,07,14,12,48,26.40
2014,07,14,12,49,26.30
2014,07,14,12,50,26.20
2014,07,14,12,51,26.10
2014,07,14,12,52,26.10
2014,07,14,12,53,26.00
2014,07,14,12,54,25.90
2014,07,14,12,55,25.80
2014,07,14,12,56,25.70
2014,07,14,12,57,25.50
2014,07,14,12,58,25.40
2014,07,14,12,59,25.20
2014,07,14,13,00,25.20
2014,07,14,13,01,25.10
2014,07,14,13,02,25.10
2014,07,14,13,03,25.00
2014,07,14,13,04,24.90
2014,07,14,13,05,24.90
2014,07,14,13,06,24.90
2014,07,14,13,07,24.90
2014,07,14,13,08,24.90
2014,07,14,13,09,24.90
2014,07,14,13,10,24.90
2014,07,14,13,11,24.90
2014,07,14,13,12,24.90
2014,07,14,13,13,24.90
2014,07,14,13,14,24.90
2014,07,14,13,15,24.90
2014,07,14,13,16,24.90
2014,07,14,13,17,24.90
2014,07,14,13,18,24.90
2014,07,14,13,19,24.90
2014,07,14,13,20,25.00
2014,07,14,13,21,25.10
2014,07,14,13,22,25.10
2014,07,14,13,23,25.20
2014,07,14,13,24,25.30
2014,07,14,13,25,25.50
2014,07,14,13,26,25.60
2014,07,14,13,27,25.60
2014,07,14,13,28,25.70
2014,07,14,13,29,25.80
2014,07,14,13,30,25.90
2014,07,14,13,31,25.90
2014,07,14,13,32,25.90
2014,07,14,13,33,25.90
2014,07,14,13,34,25.80
2014,07,14,13,35,25.80
2014,07,14,13,36,25.70
2014,07,14,13,37,25.60
2014,07,14,13,38,25.50
2014,07,14,13,39,25.40
2014,07,14,13,40,25.40
2014,07,14,13,41,25.40
2014,07,14,13,42,25.40
2014,07,14,13,43,25.40
2014,07,14,13,44,25.40
2014,07,14,13,45,25.40
2014,07,14,13,46,25.50
2014,07,14,13,47,25.50
2014,07,14,13,48,25.60
2014,07,14,13,49,25.60
2014,07,14,13,50,25.60
2014,07,14,13,51,25.70
2014,07,14,13,52,25.80
2014,07,14,13,53,25.80
2014,07,14,13,54,25.80
2014,07,14,13,55,25.90
2014,07,14,13,56,25.90
2014,07,14,13,57,26.00
2014,07,14,13,58,26.10
2014,07,14,13,59,26.20
2014,07,14,14,00,26.20
2014,07,14,14,01,26.20
2014,07,14,14,02,26.30
2014,07,14,14,03,26.30
2014,07,14,14,04,26.40
2014,07,14,14,05,26.40
2014,07,14,14,06,26.50
2014,07,14,14,07,26.50
2014,07,14,14,08,26.60
2014,07,14,14,09,26.60
2014,07,14,14,10,26.60
2014,07,14,14,11,26.60
2014,07,14,14,12,26.50
2014,07,14,14,13,26.40
2014,07,14,14,14,26.40
2014,07,14,14,15,26.40
2014,07,14,14,16,26.40
2014,07,14,14,17,26.40
2014,07,14,14,18,26.40
2014,07,14,14,19,26.40
2014,07,14,14,20,26.40
2014,07,14,14,21,26.40
2014,07,14,14,22,26.40
2014,07,14,14,23,26.30
2014,07,14,14,24,26.20
2014,07,14,14,25,26.20
2014,07,14,14,26,26.20
2014,07,14,14,27,26.20
2014,07,14,14,28,26.10
2014,07,14,14,29,26.10
2014,07,14,14,30,26.10
2014,07,14,14,31,26.10
2014,07,14,14,32,26.10
2014,07,14,14,33,26.20
2014,07,14,14,34,26.10
2014,07,14,14,35,26.10
2014,07,14,14,36,26.20
2014,07,14,14,37,26.20
2014,07,14,14,38,26.20
2014,07,14,14,39,26.20
2014,07,14,14,40,26.20
2014,07,14,14,41,26.30
2014,07,14,14,42,26.30
2014,07,14,14,43,26.30
2014,07,14,14,44,26.20
2014,07,14,14,45,26.20
2014,07,14,14,46,26.20
2014,07,14,14,47,26.20
2014,07,14,14,48,26.20
2014,07,14,14,49,26.30
2014,07,14,14,50,26.40
2014,07,14,14,51,26.40
2014,07,14,14,52,26.50
2014,07,14,14,53,26.60
2014,07,14,14,54,26.70
2014,07,14,14,55,26.70
2014,07,14,14,56,26.80
2014,07,14,14,57,26.80
2014,07,14,14,58,26.90
2014,07,14,14,59,26.90
2014,07,14,15,00,27.00
2014,07,14,15,01,27.00
2014,07,14,15,02,27.00
2014,07,14,15,03,27.00
2014,07,14,15,04,27.10
2014,07,14,15,05,27.10
2014,07,14,15,06,27.20
2014,07,14,15,07,27.20
2014,07,14,15,08,27.20
2014,07,14,15,09,27.20
2014,07,14,15,10,27.20
2014,07,14,15,11,27.30
2014,07,14,15,12,27.30
2014,07,14,15,13,27.30
2014,07,14,15,14,27.40
2014,07,14,15,15,27.40
2014,07,14,15,16,27.50
2014,07,14,15,17,27.60
2014,07,14,15,18,27.70
2014,07,14,15,19,27.70
2014,07,14,15,20,27.80
2014,07,14,15,21,27.80
2014,07,14,15,22,27.90
2014,07,14,15,23,27.90
2014,07,14,15,24,27.90
2014,07,14,15,25,28.00
2014,07,14,15,26,28.10
2014,07,14,15,27,28.10
2014,07,14,15,28,28.20
2014,07,14,15,29,28.30
2014,07,14,15,30,28.40
2014,07,14,15,31,28.40
2014,07,14,15,32,28.50
2014,07,14,15,33,28.60
2014,07,14,15,34,28.70
2014,07,14,15,35,28.70
2014,07,14,15,36,28.70
2014,07,14,15,37,28.70
2014,07,14,15,38,28.70
2014,07,14,15,39,28.60
2014,07,14,15,40,28.60
2014,07,14,15,41,28.50
2014,07,14,15,42,28.40
2014,07,14,15,43,28.40
2014,07,14,15,44,28.40
2014,07,14,15,45,28.40
2014,07,14,15,46,28.40
2014,07,14,15,47,28.40
2014,07,14,15,48,28.40
2014,07,14,15,49,28.40
2014,07,14,15,50,28.40
2014,07,14,15,51,28.50
2014,07,14,15,52,28.50
2014,07,14,15,53,28.60
2014,07,14,15,54,28.60
2014,07,14,15,55,28.70
2014,07,14,15,56,28.70
2014,07,14,15,57,28.70
2014,07,14,15,58,28.70
2014,07,14,15,59,28.70
2014,07,14,16,00,28.80
2014,07,14,16,01,28.90
2014,07,14,16,02,28.90
2014,07,14,16,03,29.00
2014,07,14,16,04,29.10
2014,07,14,16,05,29.20
2014,07,14,16,06,29.30
2014,07,14,16,07,29.30
2014,07,14,16,08,29.40
2014,07,14,16,09,29.50
2014,07,14,16,10,29.50
2014,07,14,16,11,29.60
2014,07,14,16,12,29.60
2014,07,14,16,13,29.60
2014,07,14,16,14,29.60
2014,07,14,16,15,29.60
2014,07,14,16,16,29.60
2014,07,14,16,17,29.50
2014,07,14,16,18,29.50
2014,07,14,16,19,29.40
2014,07,14,16,20,29.40
2014,07,14,16,21,29.40
2014,07,14,16,22,29.40
2014,07,14,16,23,29.40
2014,07,14,16,24,29.30
2014,07,14,16,25,29.30
2014,07,14,16,26,29.30
2014,07,14,16,27,29.30
2014,07,14,16,28,29.30
2014,07,14,16,29,29.40
2014,07,14,16,30,29.40
2014,07,14,16,31,29.40
2014,07,14,16,32,29.40
2014,07,14,16,33,29.50
2014,07,14,16,34,29.50
2014,07,14,16,35,29.60
2014,07,14,16,36,29.60
2014,07,14,16,37,29.50
2014,07,14,16,38,29.40
2014,07,14,16,39,29.40
2014,07,14,16,40,29.30
2014,07,14,16,41,29.20
2014,07,14,16,42,29.20
2014,07,14,16,43,29.20
2014,07,14,16,44,29.20
2014,07,14,16,45,29.20
2014,07,14,16,46,29.20
2014,07,14,16,47,29.20
2014,07,14,16,48,29.20
2014,07,14,16,49,29.20
2014,07,14,16,50,29.20
2014,07,14,16,51,29.20
2014,07,14,16,52,29.20
2014,07,14,16,53,29.20
2014,07,14,16,54,29.30
2014,07,14,16,55,29.30
2014,07,14,16,56,29.30
2014,07,14,16,57,29.30
2014,07,14,16,58,29.40
2014,07,14,16,59,29.40
2014,07,14,17,00,29.40
2014,07,14,17,01,29.40
2014,07,14,17,02,29.40
2014,07,14,17,03,29.40
2014,07,14,17,04,29.50
2014,07,14,17,05,29.50
2014,07,14,17,06,29.50
2014,07,14,17,07,29.60
2014,07,14,17,08,29.60
2014,07,14,17,09,29.70
2014,07,14,17,10,29.80
2014,07,14,17,11,29.80
2014,07,14,17,12,29.80
2014,07,14,17,13,29.70
2014,07,14,17,14,29.70
2014,07,14,17,15,29.70
2014,07,14,17,16,29.60
2014,07,14,17,17,29.60
2014,07,14,17,18,29.60
2014,07,14,17,19,29.60
2014,07,14,17,20,29.60
2014,07,14,17,21,29.60
2014,07,14,17,22,29.50